Location: *
(18.5200°S, 46.4500°E)
Time: 02:26:44
(UTC+00:00)

Cosmos 1459 Rocket - Pass Details

Date: 19 July 2019
Orbit: 937 x 999 km, 83.0° (Epoch: 21 August)

Event Time Altitude Azimuth Distance (km) Brightness Sun altitude
Rises 14:44:40 0° 175° (S) 3,621 6.7 -3.0°
Reaches altitude 10° 14:47:16 10° 169° (S) 2,676 6.0 -3.5°
Maximum altitude 14:53:08 48° 96° (E) 1,224 4.2 -4.8°
Drops below altitude 10° 14:59:01 10° 22° (NNE) 2,687 6.3 -6.1°
Sets 15:01:37 0° 17° (NNE) 3,637 7.0 -6.7°
